Date String (YYYY-MM-DD hh:mm:ss) UTC,Instrument flags,Ambient pressure (hPa),Sample flow (lpm),Bypass flow (lpm),Sample temperature (°C),Ambient temperature (°C),ASC tube jacket temperature (°C),LED temperature (°C),Box temperature (°C),Sample RH (%),Span deviation,Mass concentration (μg/m³),Mass concentration (μg/m³),Mass concentration (μg/m³)
DateTimeUTC,F1_M11,P_M11,Q1_M11,Q2_M11,T1_M11,T2_M11,T3_M11,T4_M11,T5_M11,U1_M11,ZSPAN_M11,X0_M11,X2_M11,X1_M11
2022-06-15 17:00:00,,0823.9,4.99,0.00,29.8,28.9,00.0,38.6,31.8,05.5,0000.0,0005.88,0002.61,0001.95
2022-06-15 17:01:00,,0823.9,5.00,0.00,29.8,28.9,00.0,38.6,31.7,05.4,0000.0,0006.48,0002.57,0001.93
2022-06-15 17:02:00,,0823.8,5.00,0.00,29.8,28.9,00.0,38.6,31.8,05.4,0000.0,0006.30,0002.50,0001.89
2022-06-15 17:03:00,,0823.8,5.00,0.00,29.9,28.9,00.0,38.7,31.7,05.2,0000.0,0006.83,0002.46,0001.88
2022-06-15 17:04:00,,0823.9,4.99,0.00,29.9,28.9,00.0,38.7,31.7,05.1,0000.0,0007.43,0002.51,0001.88
2022-06-15 17:05:00,,0823.9,5.00,0.00,29.9,28.9,00.0,38.7,31.8,05.1,0000.0,0007.46,0002.52,0001.88
2022-06-15 17:06:00,,0824.0,5.00,0.00,29.9,28.9,00.0,38.7,31.8,05.2,0000.0,0007.53,0002.50,0001.87
2022-06-15 17:07:00,,0824.0,5.00,0.00,29.9,28.7,00.0,38.7,31.7,05.2,0000.0,0007.58,0002.51,0001.87
2022-06-15 17:08:00,,0824.0,5.00,0.00,29.8,28.0,00.0,38.6,31.5,05.3,0000.0,0007.50,0002.54,0001.85
2022-06-15 17:09:00,,0824.0,5.01,0.00,29.8,27.8,00.0,38.6,31.4,05.5,0000.0,0007.47,0002.52,0001.83
2022-06-15 17:10:00,,0824.0,4.99,0.00,29.7,27.8,00.0,38.6,31.4,05.8,0000.0,0007.80,0002.50,0001.84
2022-06-15 17:11:00,,0824.0,4.99,0.00,29.7,27.8,00.0,38.6,31.4,05.7,0000.0,0008.07,0002.50,0001.82
2022-06-15 17:12:00,,0824.1,5.00,0.00,29.7,27.9,00.0,38.6,31.4,05.8,0000.0,0007.80,0002.53,0001.83
2022-06-15 17:13:00,,0824.1,5.00,0.00,29.6,28.0,00.0,38.5,31.4,05.7,0000.0,0007.76,0002.53,0001.84
2022-06-15 17:14:00,,0824.0,5.00,0.00,29.6,28.1,00.0,38.5,31.4,05.5,0000.0,0007.33,0002.54,0001.83
2022-06-15 17:15:00,,0824.0,5.00,0.00,29.6,28.2,00.0,38.5,31.4,05.5,0000.0,0006.90,0002.52,0001.83
2022-06-15 17:16:00,,0824.1,4.99,0.00,29.6,28.3,00.0,38.5,31.5,05.6,0000.0,0007.57,0002.53,0001.83
2022-06-15 17:17:00,,0824.1,4.99,0.00,29.6,28.4,00.0,38.5,31.5,05.7,0000.0,0007.55,0002.54,0001.83
2022-06-15 17:18:00,,0824.1,5.00,0.00,29.6,28.4,00.0,38.5,31.5,05.8,0000.0,0007.29,0002.56,0001.84
2022-06-15 17:19:00,,0824.1,5.00,0.00,29.7,28.5,00.0,38.5,31.5,05.9,0000.0,0007.12,0002.52,0001.85
2022-06-15 17:20:00,,0824.1,5.01,0.00,29.7,28.6,00.0,38.5,31.5,05.9,0000.0,0006.69,0002.48,0001.85
2022-06-15 17:21:00,,0824.1,5.00,0.00,29.7,28.6,00.0,38.5,31.6,05.8,0000.0,0005.98,0002.43,0001.83
2022-06-15 17:22:00,,0824.1,5.00,0.00,29.7,28.7,00.0,38.5,31.6,05.9,0000.0,0005.77,0002.43,0001.82
2022-06-15 17:23:00,,0824.0,4.99,0.00,29.7,28.7,00.0,38.5,31.6,06.0,0000.0,0005.10,0002.38,0001.83
2022-06-15 17:24:00,,0824.1,5.01,0.00,29.7,28.8,00.0,38.6,31.6,06.0,0000.0,0005.00,0002.37,0001.83
2022-06-15 17:25:00,,0824.1,4.99,0.00,29.8,28.8,00.0,38.6,31.7,06.0,0000.0,0004.99,0002.37,0001.83
2022-06-15 17:26:00,,0824.1,5.01,0.00,29.8,28.8,00.0,38.6,31.7,06.2,0000.0,0005.15,0002.38,0001.82
2022-06-15 17:27:00,,0824.0,5.00,0.00,29.8,28.6,00.0,38.6,31.6,06.2,0000.0,0004.70,0002.36,0001.83
2022-06-15 17:28:00,,0823.9,5.01,0.00,29.7,27.9,00.0,38.5,31.4,05.8,0000.0,0005.19,0002.36,0001.83
2022-06-15 17:29:00,,0824.0,4.99,0.00,29.7,27.4,00.0,38.4,31.3,05.6,0000.0,0005.07,0002.31,0001.82
2022-06-15 17:30:00,,0824.0,5.01,0.00,29.6,27.4,00.0,38.4,31.2,05.7,0000.0,0005.12,0002.34,0001.82
2022-06-15 17:31:00,,0824.0,5.00,0.00,29.5,27.5,00.0,38.4,31.2,05.7,0000.0,0005.18,0002.35,0001.83
2022-06-15 17:32:00,,0824.0,5.00,0.00,29.5,27.6,00.0,38.4,31.2,05.7,0000.0,0005.20,0002.35,0001.84
2022-06-15 17:33:00,,0824.0,5.01,0.00,29.5,27.7,00.0,38.4,31.3,05.7,0000.0,0005.88,0002.32,0001.84
2022-06-15 17:34:00,,0824.0,5.00,0.00,29.5,27.8,00.0,38.4,31.3,05.7,0000.0,0006.09,0002.37,0001.84
2022-06-15 17:35:00,,0824.1,5.00,0.00,29.5,28.0,00.0,38.4,31.3,05.8,0000.0,0006.30,0002.43,0001.84
2022-06-15 17:36:00,,0824.1,4.99,0.00,29.5,28.1,00.0,38.4,31.3,05.7,0000.0,0006.45,0002.45,0001.85
2022-06-15 17:37:00,,0824.0,5.01,0.00,29.5,28.2,00.0,38.4,31.4,05.6,0000.0,0006.20,0002.40,0001.85
2022-06-15 17:38:00,,0824.1,5.00,0.00,29.5,28.3,00.0,38.4,31.4,05.8,0000.0,0005.93,0002.35,0001.84
2022-06-15 17:39:00,,0824.0,5.00,0.00,29.5,28.3,00.0,38.4,31.4,06.0,0000.0,0004.86,0002.31,0001.83
2022-06-15 17:40:00,,0824.1,4.99,0.00,29.5,28.4,00.0,38.4,31.4,06.0,0000.0,0004.77,0002.27,0001.82
2022-06-15 17:41:00,,0824.1,5.00,0.00,29.6,28.5,00.0,38.4,31.5,06.1,0000.0,0004.61,0002.19,0001.82
2022-06-15 17:42:00,,0824.1,5.01,0.00,29.6,28.6,00.0,38.4,31.5,06.1,0000.0,0004.67,0002.19,0001.82
2022-06-15 17:43:00,,0824.1,5.01,0.00,29.6,28.6,00.0,38.4,31.5,06.1,0000.0,0004.75,0002.19,0001.82
2022-06-15 17:44:00,,0824.1,5.00,0.00,29.6,28.7,00.0,38.4,31.6,06.2,0000.0,0003.86,0002.20,0001.82
2022-06-15 17:45:00,,0824.1,4.99,0.00,29.7,28.8,00.0,38.5,31.6,06.2,0000.0,0003.77,0002.17,0001.80
2022-06-15 17:46:00,,0824.1,5.00,0.00,29.7,28.6,00.0,38.4,31.6,06.4,0000.0,0003.66,0002.18,0001.80
2022-06-15 17:47:00,,0824.1,5.01,0.00,29.6,27.9,00.0,38.4,31.4,06.4,0000.0,0003.58,0002.19,0001.79
2022-06-15 17:48:00,,0824.1,4.99,0.00,29.6,27.4,00.0,38.3,31.2,06.4,0000.0,0003.77,0002.23,0001.79
2022-06-15 17:49:00,,0824.1,5.00,0.00,29.5,27.3,00.0,38.3,31.2,06.6,0000.0,0004.07,0002.23,0001.78
2022-06-15 17:50:00,,0824.0,5.00,0.00,29.5,27.4,00.0,38.3,31.2,06.4,0000.0,0004.00,0002.20,0001.77
2022-06-15 17:51:00,,0824.0,5.01,0.00,29.4,27.5,00.0,38.3,31.2,06.1,0000.0,0004.08,0002.22,0001.77
2022-06-15 17:52:00,,0824.0,4.99,0.00,29.4,27.6,00.0,38.3,31.2,05.9,0000.0,0004.17,0002.25,0001.78
2022-06-15 17:53:00,,0824.0,5.00,0.00,29.4,27.8,00.0,38.3,31.2,05.7,0000.0,0004.20,0002.28,0001.78
2022-06-15 17:54:00,,0824.0,4.99,0.00,29.4,27.9,00.0,38.3,31.3,05.8,0000.0,0003.83,0002.28,0001.77
2022-06-15 17:55:00,,0824.0,5.00,0.00,29.4,28.0,00.0,38.3,31.3,05.8,0000.0,0003.67,0002.26,0001.77
2022-06-15 17:56:00,,0824.0,5.02,0.00,29.4,28.1,00.0,38.3,31.3,05.8,0000.0,0003.58,0002.25,0001.76
2022-06-15 17:57:00,,0824.0,5.00,0.00,29.4,28.2,00.0,38.3,31.3,05.9,0000.0,0003.56,0002.21,0001.76
2022-06-15 17:58:00,,0824.0,5.00,0.00,29.5,28.3,00.0,38.3,31.4,05.9,0000.0,0004.09,0002.20,0001.76
2022-06-15 17:59:00,,0823.9,4.99,0.00,29.5,28.4,00.0,38.3,31.4,05.9,0000.0,0004.85,0002.18,0001.77
